SL-16 DEB, 22618

Orbit data source: Space-Track

SL-16 DEB, 22618 is space debris in LEO originally from a launch on Fri, 26 Mar 1993 UTC launched from the Tyuratam Missile And Space Complex (TTMTR). Debris objects in space refer to the collection of defunct objects orbiting the Earth. Examples of debris include non-operational satellites, rocket bodies, and fragments generated from explosions, collisions, or faulty payload assembly.

Loading next visibility...
Identifier
22618, 1993-016AC
Orbit
LEO
Country
Flag of CISCIS
Related business
Manufacturer
Unknown
Mission
Spacecraft
Bus & Motor
Unknown
Mass
Unknown
Launch date (UTC)
1993-03-26 (33 years ago)
Launch vehicle
Unknown
Launch site
Tyuratam Missile And Space Complex (TTMTR)
Object type
Payload
Rocket body
Debris
Shape & HBR
Unknown shape, 0.2 m
Radar Cross Section
Small (<0.1 m²)

Expand to show TLE details & history
Last TLE update: 1 day ago

TLE from 1 day ago
0 SL-16 DEB
1 22618U 93016AC  25346.28178886  .00000373  00000-0  34404-3 0  9997
2 22618  70.9931 313.6890 0157578 211.2390 147.9280 13.83462912648638
Epoch: 2025-12-12T06:45Z
TLE epoch observation values (Epoch: 2025-12-12T06:45:46.557Z)
Latitude
-0.00005°
Longitude
131.01934°
Altitude
1,052.384 km
Speed
7.277 km/s
True Right ascension
20h 54m 45s
True Declination
0° 00' 00"
Sunlit
Object was in daylight at epoch
Visualization orbit readout
Latitude
Unknown
Longitude
Unknown
Altitude
Unknown
Speed
Unknown
Apparent Right ascension
Unknown
Apparent Declination
Unknown
Sunlit
N/A
Visualization observer readout
Local Sidereal Time
05:21:59
Azimuth
Unknown
Elevation
Unknown
Doppler factor
Unknown
Orbital elements
Apogee altitude
1,065.054 km
Perigee altitude
834.117 km
Semi-major axis
7,327.723 km
Eccentricity
0.01576
Inclination
70.9931°
RAAN
313.689°
Arg. of periapsis
211.239°
True anomaly
148.87101°
Mean anomaly
147.928°
Eccentric anomaly
148.40107°
Mean motion
3.46011 °/min
Orbital period
104.04 mins
BSTAR
0.00034404
Loading maneuver chart data...
Computing Atmospheric mass density...
Loading historical data...
Loading historical data...
Loading historical data...
Loading historical data...
Loading historical data...
Loading historical data...
Loading historical data...

Documentation

Showing up to 5 results
|